Weather History for Ontario, OR

Change the Weather History Date:

Thursday, January 16, 2014

  Actual Average Record
Temperature  
Mean Temperature 25 °F 27 °F  
Max Temperature 32 °F 35 °F 56 °F (1954)
Min Temperature 18 °F 20 °F -4 °F (2013)
Degree Days  
Heating Degree Days 40 38  
Month to date heating degree days 594 612  
Since 1 July heating degree days 3386 3193  
Cooling Degree Days 0 0  
Month to date cooling degree days 0 0  
Year to date cooling degree days 0 0  
Moisture  
Dew Point 21 °F    
Average Humidity 87    
Maximum Humidity 92    
Minimum Humidity 81    
Precipitation  
Precipitation 0.00 in 0.04 in 0.62 in (1970)
Month to date precipitation 0.31 0.71  
Year to date precipitation 0.31 0.71  
Sea Level Pressure  
Sea Level Pressure 30.60 in    
Wind  
Wind Speed 1 mph (SE)    
Max Wind Speed 6 mph    
Max Gust Speed 6 mph    
Visibility 1 miles    
Events Fog    
T = Trace of Precipitation, MM = Missing Value Source: NWS Daily Summary

Daily Weather History Graph

Daily Weather History Graph

Search for Another Location

Airport:

Trip Planner

Search our weather history database for the weather conditions in past years. The results will help you decide how hot, cold, wet, or windy it might be!

Date:

Astronomy

Jan. 16, 2014 Rise Set
Actual Time 8:18 AM MST 5:37 PM MST
Civil Twilight 7:47 AM MST 6:09 PM MST
Nautical Twilight 7:11 AM MST 6:44 PM MST
Astronomical Twilight 6:36 AM MST 7:19 PM MST
Moon 6:36 PM MST (1/16) 8:12 AM MST (1/16)
Length of Visible Light 10h 22m
Length of Day
9h 18m
Full, 100% of the Moon is Illuminated
Jan 16
Full
Jan 23
Last Quarter
Jan 30
New
Feb 6
First Quarter
Feb 14
Full

Hourly Weather History & Observations

Time (MST) Temp. Windchill Dew Point Humidity Pressure Visibility Wind Dir Wind Speed Gust Speed Precip Events Conditions
12:04 AM 21.9 °F - 21.0 °F 96% 30.57 in 2.0 mi Calm Calm - N/A   Clear
12:13 AM 23.0 °F - 21.0 °F 92% 30.56 in 3.0 mi Calm Calm - N/A   Clear
12:44 AM 21.9 °F - 19.9 °F 92% 30.56 in 2.0 mi Calm Calm - N/A   Clear
12:50 AM 21.2 °F - 21.2 °F 100% 30.56 in 1.0 mi Calm Calm - N/A   Clear
12:51 AM 21.9 °F - 19.9 °F 92% 30.64 in 1.0 mi Calm Calm - N/A   Clear
12:56 AM 21.9 °F - 19.9 °F 92% 30.56 in 0.8 mi Calm Calm - N/A   Mist
1:23 AM 23.0 °F 17.0 °F 21.0 °F 92% 30.56 in 1.5 mi NNE 4.6 mph - N/A   Scattered Clouds
1:25 AM 23.0 °F 18.4 °F 21.0 °F 92% 30.56 in 4.0 mi NNE 3.5 mph - N/A   Scattered Clouds
1:53 AM 21.9 °F - 19.9 °F 92% 30.65 in 4.0 mi Calm Calm - N/A   Clear
2:00 AM 21.0 °F - 18.0 °F 88% 30.57 in 2.5 mi Calm Calm - N/A   Scattered Clouds
2:02 AM 21.0 °F - 18.0 °F 88% 30.57 in 1.8 mi Calm Calm - N/A   Scattered Clouds
2:06 AM 19.9 °F - 17.1 °F 89% 30.57 in 1.0 mi Calm Calm - N/A   Mist
2:13 AM 19.0 °F 13.9 °F 17.1 °F 92% 30.57 in 0.2 mi NW 3.5 mph - N/A Fog Light Freezing Fog
2:53 AM 21.0 °F - 19.9 °F 96% 30.65 in 0.2 mi Calm Calm - N/A Fog Light Freezing Fog
3:53 AM 21.9 °F 17.2 °F 19.0 °F 89% 30.64 in 0.5 mi WSW 3.5 mph - N/A Fog Light Freezing Fog
3:59 AM 23.0 °F 18.4 °F 19.0 °F 85% 30.56 in 1.2 mi WSW 3.5 mph - N/A   Scattered Clouds
4:04 AM 23.0 °F 18.4 °F 19.0 °F 85% 30.57 in 2.5 mi WSW 3.5 mph - N/A   Partly Cloudy
4:12 AM 23.0 °F 18.4 °F 19.9 °F 88% 30.57 in 4.0 mi WSW 3.5 mph - N/A   Clear
4:53 AM 21.0 °F - 17.1 °F 85% 30.65 in 5.0 mi Calm Calm - N/A   Clear
5:05 AM 19.9 °F 13.4 °F 16.0 °F 85% 30.57 in 6.0 mi NE 4.6 mph - N/A   Partly Cloudy
5:25 AM 19.9 °F 14.9 °F 17.1 °F 89% 30.57 in 5.0 mi NE 3.5 mph - N/A   Mostly Cloudy
5:30 AM 21.0 °F 16.2 °F 17.1 °F 85% 30.57 in 2.0 mi NNE 3.5 mph - N/A   Mostly Cloudy
5:33 AM 21.0 °F - 17.1 °F 85% 30.57 in 1.0 mi Calm Calm - N/A   Mist
5:40 AM 19.9 °F - 17.1 °F 89% 30.57 in 0.2 mi Calm Calm - N/A Fog Light Freezing Fog
5:53 AM 18.0 °F - 15.1 °F 88% 30.66 in 0.2 mi Calm Calm - N/A Fog Light Freezing Fog
6:25 AM 19.9 °F - 17.1 °F 89% 30.57 in 1.2 mi Calm Calm - N/A   Overcast
6:35 AM 21.0 °F - 17.1 °F 85% 30.57 in 0.8 mi Calm Calm - N/A   Mist
6:53 AM 21.0 °F - 18.0 °F 88% 30.66 in 0.2 mi Calm Calm - N/A Fog Light Freezing Fog
7:37 AM 23.0 °F - 19.0 °F 85% 30.59 in 1.0 mi Calm Calm - N/A   Mist
7:53 AM 23.0 °F - 19.0 °F 85% 30.67 in 0.5 mi Calm Calm - N/A Fog Light Freezing Fog
8:53 AM 21.9 °F - 19.0 °F 89% 30.69 in 0.2 mi Calm Calm - N/A Fog Light Freezing Fog
9:53 AM 24.1 °F - 21.0 °F 88% 30.70 in 0.2 mi Calm Calm - N/A Fog Light Freezing Fog
10:53 AM 26.1 °F - 21.9 °F 84% 30.71 in 0.2 mi Calm Calm - N/A Fog Light Freezing Fog
11:53 AM 28.0 °F - 24.1 °F 85% 30.70 in 0.2 mi Calm Calm - N/A Fog Light Freezing Fog
12:53 PM 30.9 °F - 26.1 °F 82% 30.66 in 0.5 mi Calm Calm - N/A   Haze
1:53 PM 30.9 °F - 28.0 °F 89% 30.64 in 0.2 mi Calm Calm - N/A Fog Light Freezing Fog
2:53 PM 30.9 °F 27.5 °F 28.0 °F 89% 30.62 in 0.2 mi SSE 3.5 mph - N/A Fog Light Freezing Fog
3:08 PM 32.0 °F - 28.9 °F 88% 30.52 in 1.2 mi Calm Calm - N/A   Overcast
3:19 PM 30.9 °F 26.2 °F 28.0 °F 89% 30.53 in 0.8 mi SSE 4.6 mph - N/A   Overcast
3:53 PM 30.9 °F 27.5 °F 28.0 °F 89% 30.61 in 0.2 mi South 3.5 mph - N/A Fog Light Freezing Fog
4:53 PM 30.0 °F 26.5 °F 27.0 °F 88% 30.60 in 0.2 mi SSE 3.5 mph - N/A Fog Light Freezing Fog
5:53 PM 28.9 °F 25.2 °F 26.1 °F 89% 30.60 in 0.2 mi SE 3.5 mph - N/A Fog Light Freezing Fog
6:53 PM 28.9 °F 25.2 °F 26.1 °F 89% 30.59 in 0.2 mi SE 3.5 mph - N/A Fog Light Freezing Fog
7:53 PM 28.0 °F 24.2 °F 25.0 °F 88% 30.59 in 0.2 mi SE 3.5 mph - N/A Fog Light Freezing Fog
8:53 PM 27.0 °F - 23.0 °F 85% 30.58 in 0.2 mi Calm Calm - N/A Fog Light Freezing Fog
9:53 PM 26.1 °F - 21.9 °F 84% 30.60 in 0.2 mi Calm Calm - N/A Fog Light Freezing Fog
10:53 PM 24.1 °F - 19.0 °F 81% 30.60 in 0.2 mi Calm Calm - N/A   Haze
11:53 PM 24.1 °F - 19.9 °F 84% 30.60 in 0.2 mi Calm Calm - N/A Fog Light Freezing Fog